Regional Weather Roundup
Issued by NWS

Home | Current Version | Previous Version | Text Only | Print | Product List | Glossary On
Versions: 1 2 3 4 5 6 7 8 9 10 11 12 13 14 15 16 17 18 19 20 21 22 23 24 25 26 27 28 29 30 31 32 33 34 35 36 37 38 39 40 41 42 43 44 45 46 47 48 49 50
000
ASUS43 KDTX 260701
RWRMI
MICHIGAN HOURLY REGIONAL WEATHER ROUNDUP
NATIONAL WEATHER SERVICE DETROIT/PONTIAC MI
300 AM EDT TUE MAY 26 2015

NOTE: "FAIR" INDICATES FEW OR NO CLOUDS BELOW 12,000 FEET WITH NO
SIGNIFICANT WEATHER AND/OR OBSTRUCTION TO VISIBILITY.

MIZ047>049-052>055-059>063-066>070-074>076-081>083-260800-
SOUTHEAST LOWER MICHIGAN

CITY           SKY/WX    TMP DP  RH WIND       PRES   REMARKS
ADRIAN         CLEAR     67  62  84 SW9       30.04F
ALMA           CLEAR     65  61  86 S6        29.98R
ANN ARBOR      CLEAR     65  61  87 S6        30.03F
BAD AXE        CLEAR     63  58  85 S7        29.97F
CARO           CLEAR     62  59  91 SW5       29.98S
DETROIT CITY   PTCLDY    70  62  76 SW9       30.03S
DETROIT        MOCLDY    70  63  78 S12       30.04S
FLINT          CLEAR     69  62  78 S7        30.00S
GROSSE ILE     PTCLDY    66  63  88 S6        30.03S
HILLSDALE      CLEAR     65  64  97 S3        30.04S
HOWELL         CLEAR     67  62  85 S5        30.02R

CITY           SKY/WX    TMP DP  RH WIND       PRES   REMARKS
JACKSON        CLEAR     66  62  87 S6        30.02S
LAMBERTVILLE   CLEAR     70  63  78 S7        30.05F
LANSING        PTCLDY    68  62  81 S9        30.00S
LAPEER         NOT AVBL
MASON          PTCLDY    65  60  84 S5        30.01S
MONROE         PTCLDY    70  63  78 SW6       30.03S
MT. CLEMENS    PTCLDY    71  63  77 SW10      30.00S
PONTIAC        CLEAR     69  62  78 SW8       30.01F
PORT HOPE        N/A    N/A N/A N/A SW6       29.94F
PORT HURON     MOCLDY    64  61  88 S6        30.02S
TRI CITIES     PTCLDY    67  59  75 SW7       29.97S
MIDLAND        FAIR      65  58  79 S3        29.96R
TROY           CLEAR     71  62  72 SW6       30.04F
SAGINAW HB     PTCLDY    64  61  88 S9        29.97R
$$
MIZ043>046-050>051-056>058-064>065-071>073-077>080-260800-
SOUTHWEST LOWER MICHIGAN

CITY           SKY/WX    TMP DP  RH WIND       PRES   REMARKS
BATTLE CREEK   PTCLDY    67  62  84 S9        30.00F
BENTON HARBOR  PTCLDY    68  63  84 S10       29.97S
BIG RAPIDS     MOCLDY    64  57  79 S3        29.95R
COLDWATER      CLEAR     67  62  84 S5        30.02S
FREMONT        FAIR      62  58  87 S5        29.95S
HOLLAND        PTCLDY    64  59  83 S6        29.98R
GRAND RAPIDS   PTCLDY    67  61  81 SW8       29.97S
IONIA          FAIR      67  60  78 SW9       29.98S
KALAMAZOO      CLEAR     66  62  87 S7        30.00F
LUDINGTON      PTCLDY    71  60  69 S12G17    29.91S
MARSHALL       CLEAR     67  63  85 S3        30.00F
MOUNT PLEASANT CLEAR     66  59  77 S5        29.96R
MUSKEGON       PTCLDY    67  57  70 S14       29.95S
SOUTH HAVEN    PTCLDY    69  62  79 S7        29.97R
$$
MIZ016>042-260800-
NORTHERN LOWER MICHIGAN

CITY           SKY/WX    TMP DP  RH WIND       PRES   REMARKS
ALPENA         PTCLDY    68  60  75 SW8       29.89F
BEAVER ISLAND  CLOUDY    64  58  82 SW16G23   29.84R
BELLAIRE       MOCLDY    61  59  95 CALM      29.89R FOG
CADILLAC       CLEAR     64  59  84 SW8       29.94R
CHARLEVOIX     MOCLDY    64  61  90 SW10G16   29.89S
FRANKFORT      PTCLDY    67  56  68 SW10G20   29.89S
GAYLORD        MOCLDY    63  62  97 SW10      29.91S
HARBOR SPRINGS CLOUDY    63  60  93 W5        29.88R
HOUGHTON LAKE  PTCLDY    64  59  83 SW8       29.94F
MANISTEE       PTCLDY    66  57  72 S8        29.91R
OSCODA         CLEAR     64  61  89 SW9       29.92F
PELLSTON       LGT RAIN  65  61  87 SW10      29.87R
ROGERS CITY    RAIN      67  62  83 SW16G26   29.88S
TRAVERSE CITY  PTCLDY    69  59  70 VRB6      29.88S
$$
MIZ007>008-015-260800-
EASTERN UPPER MICHIGAN

CITY           SKY/WX    TMP DP  RH WIND       PRES   REMARKS
KINROSS        CLOUDY    57  57 100 S8        29.84S
MACKINAC ISLAN RAIN      56  55  97 SW9G20    29.85S
NEWBERRY       CLOUDY    53  53 100 SW13      29.82R FOG
S. S. MARIE    CLOUDY    59  56  89 CALM      29.83R
$$
MIZ004>006-011>014-085-260800-
CENTRAL UPPER MICHIGAN

CITY           SKY/WX    TMP DP  RH WIND       PRES   REMARKS
MANISTIQUE     PTCLDY    47  46  96 S3        29.81S FOG
ESCANABA       MOCLDY    57  54  88 S6        29.81R
MENOMINEE      PTCLDY    61  57  88 SW3       29.82S
SAWYER-GWINN   CLEAR     58  57  94 S8        29.79S
$$
MIZ001>003-009>011-084-260800-
WESTERN UPPER MICHIGAN

CITY           SKY/WX    TMP DP  RH WIND       PRES   REMARKS
IRON MOUNTAIN  PTCLDY    59  57  93 S5        29.81R
HOUGHTON       FOG       51  50  96 W15       29.75F VSB 1
COPPER HARBOR    N/A     41  39  93 N7        29.74R
IRONWOOD       CLOUDY    54  54 100 W3        29.77R
$$

ABBREVIATIONS USED IN REMARKS
   TC - TEMPERATURE IN CELSIUS
  WCI - WIND CHILL INDEX
   HX - HEAT INDEX
  VSB - VISIBILITY



USA.gov is the U.S. government's official web portal to all federal, state and local government web resources and services.